Starlink 31387

operational
NORAD ID: 59407 Int'l Des: 2024-064 Owner: SPXS Country: US Constellation: starlink
LEOCIRCULAR

Starlink 31387について

説明を読み込み中...

リアルタイム位置

3D地球を読み込み中...

次回通過

高度履歴

Altitude vs Time

uPlot chart will show altitude changes over time

軌道要素

1 59407U 24064K 25260.22471595 -.00001571 00000-0 -47590-4 0 9996
2 59407 43.0006 316.0638 0001828 274.4987 85.5656 15.27571985 82697
Epoch: Sep 17, 2025 • Age: 14 hours

現在のステータス

高度 491.4 km
速度 7.62 km/s
衛星直下点 -33.58°S, 18.49°W
打ち上げ日 Apr 5, 2024
運用期間 1.4 years
タイプ internet

技術仕様

分類 Payload
質量 730.00 kg
乾燥質量 700.00 kg
総質量 730.00 kg
長さ 0.30 m
直径 4.10 m
スパン 29.00 m
形状 Box + pan
製造者 SPXS
バスタイプ Starlink V2M
フェーズステータス In Orbit
所有者/国 SPXS/US

大規模コンステレーション

Loading constellations...